Location: Gleizolles
(44.4833°N, 6.7667°E)
Time: 03:24:35
(UTC+00:00)

Vanguard 1 Rocket - Pass Details

Date: 28 June 2024
Orbit: 650 x 4219 km, 34.3° (Epoch: 15 July)

Event Time Altitude Azimuth Distance (km) Brightness Sun altitude
Rises 08:16:47 0° 278° (W) 8,029 11.8 44.3°
Reaches altitude 10° 08:26:52 10° 258° (WSW) 7,358 11.7 46.1°
Maximum altitude 08:37:07 14° 234° (SW) 7,033 11.8 47.9°
Drops below altitude 10° 08:47:11 10° 210° (SSW) 7,106 12.0 49.6°
Sets 08:56:53 0° 189° (S) 7,552 12.2 51.2°
